Hourly Weather Bolshoe Lavrovo

Today, 6 August, Friday

Time Temperature Precipitation Wind Pressure Humidity
00:00 +23°C° 0 mm 2 mps 748 mmHg 49%
01:00 +23°C° 0 mm 2 mps 748 mmHg 51%
02:00 +21°C° 0 mm 2 mps 748 mmHg 52%
03:00 +21°C° 0 mm 2 mps 747 mmHg 53%
04:00 +21°C° 0 mm 2 mps 747 mmHg 53%
05:00 +21°C° 0 mm 2 mps 747 mmHg 53%
06:00 +21°C° 0 mm 2 mps 748 mmHg 52%
07:00 +23°C° 0 mm 2 mps 748 mmHg 50%
08:00 +24°C° 0 mm 3 mps 748 mmHg 48%
09:00 +25°C° 0 mm 3 mps 748 mmHg 45%
10:00 +27°C° 0 mm 3 mps 747 mmHg 39%
11:00 +30°C° 0 mm 4 mps 747 mmHg 32%
12:00 +33°C° 0 mm 4 mps 747 mmHg 26%
13:00 +34°C° 0 mm 5 mps 746 mmHg 25%
14:00 +35°C° 0 mm 5 mps 746 mmHg 25%
15:00 +35°C° 0 mm 5 mps 745 mmHg 24%
16:00 +34°C° 0 mm 5 mps 745 mmHg 27%
17:00 +33°C° 0 mm 5 mps 745 mmHg 29%
18:00 +32°C° 0 mm 5 mps 745 mmHg 32%
19:00 +30°C° 0 mm 5 mps 745 mmHg 34%
20:00 +29°C° 0 mm 5 mps 745 mmHg 36%
21:00 +28°C° 0 mm 5 mps 745 mmHg 38%
22:00 +28°C° 0 mm 6 mps 745 mmHg 37%
23:00 +28°C° 0 mm 6 mps 745 mmHg 35%

Tomorrow, 7 August, Saturday

Time Temperature Precipitation Wind Pressure Humidity
00:00 +28°C° 0 mm 7 mps 745 mmHg 33%
01:00 +27°C° 0 mm 6 mps 745 mmHg 35%
02:00 +26°C° 0 mm 6 mps 745 mmHg 37%
03:00 +25°C° 0 mm 5 mps 745 mmHg 39%
04:00 +23°C° 0 mm 5 mps 746 mmHg 40%
05:00 +23°C° 0 mm 5 mps 746 mmHg 40%
06:00 +22°C° 0 mm 4 mps 746 mmHg 41%
07:00 +26°C° 0 mm 5 mps 746 mmHg 37%
08:00 +28°C° 0 mm 6 mps 746 mmHg 32%
09:00 +30°C° 0 mm 6 mps 746 mmHg 28%
10:00 +32°C° 0 mm 6 mps 746 mmHg 25%
11:00 +34°C° 0 mm 6 mps 746 mmHg 23%
12:00 +35°C° 0 mm 5 mps 746 mmHg 21%
13:00 +35°C° 0 mm 5 mps 746 mmHg 21%
14:00 +35°C° 0 mm 5 mps 746 mmHg 22%
15:00 +35°C° 0 mm 5 mps 745 mmHg 22%
16:00 +34°C° 0 mm 5 mps 745 mmHg 23%
17:00 +34°C° 0 mm 5 mps 745 mmHg 24%
18:00 +34°C° 0 mm 4 mps 746 mmHg 25%
19:00 +32°C° 0 mm 5 mps 745 mmHg 27%
20:00 +30°C° 0 mm 5 mps 745 mmHg 30%
21:00 +29°C° 0 mm 5 mps 745 mmHg 32%
22:00 +28°C° 0 mm 5 mps 746 mmHg 32%
23:00 +27°C° 0 mm 5 mps 746 mmHg 33%

Day after tomorrow, 8 August, Sunday

Time Temperature Precipitation Wind Pressure Humidity
00:00 +26°C° 0 mm 5 mps 746 mmHg 33%
01:00 +26°C° 0 mm 4 mps 746 mmHg 34%
02:00 +25°C° 0 mm 4 mps 746 mmHg 35%
03:00 +24°C° 0 mm 3 mps 747 mmHg 36%
04:00 +24°C° 0 mm 3 mps 747 mmHg 37%
05:00 +24°C° 0 mm 2 mps 747 mmHg 39%
06:00 +23°C° 0 mm 2 mps 747 mmHg 40%
07:00 +24°C° 0 mm 2 mps 747 mmHg 38%
08:00 +26°C° 0 mm 2 mps 747 mmHg 36%
09:00 +27°C° 0 mm 2 mps 748 mmHg 34%
10:00 +29°C° 0 mm 2 mps 748 mmHg 30%
11:00 +32°C° 0 mm 2 mps 748 mmHg 25%
12:00 +35°C° 0 mm 3 mps 748 mmHg 21%
13:00 +35°C° 0 mm 3 mps 748 mmHg 22%
14:00 +35°C° 0 mm 3 mps 748 mmHg 24%
15:00 +34°C° 0 mm 3 mps 748 mmHg 26%
16:00 +33°C° 0 mm 3 mps 748 mmHg 29%
17:00 +33°C° 0 mm 3 mps 749 mmHg 32%
18:00 +31°C° 0 mm 2 mps 749 mmHg 35%
19:00 +29°C° 0 mm 2 mps 749 mmHg 40%
20:00 +28°C° 0 mm 2 mps 749 mmHg 45%
21:00 +26°C° 0 mm 2 mps 750 mmHg 51%
22:00 +26°C° 0 mm 2 mps 750 mmHg 52%
23:00 +26°C° 0 mm 2 mps 750 mmHg 54%

9 August, Monday

Time Temperature Precipitation Wind Pressure Humidity
00:00 +25°C° 0 mm 2 mps 750 mmHg 56%
01:00 +25°C° 0 mm 2 mps 750 mmHg 58%
02:00 +25°C° 0 mm 2 mps 751 mmHg 59%
03:00 +24°C° 0 mm 2 mps 751 mmHg 61%
04:00 +24°C° 0 mm 2 mps 751 mmHg 62%
05:00 +24°C° 0 mm 2 mps 751 mmHg 63%
06:00 +24°C° 0 mm 1 mps 751 mmHg 64%
07:00 +24°C° 0 mm 2 mps 751 mmHg 63%
08:00 +25°C° 0 mm 2 mps 751 mmHg 61%
09:00 +26°C° 0 mm 2 mps 751 mmHg 60%
10:00 +26°C° 0 mm 2 mps 751 mmHg 57%
11:00 +27°C° 0 mm 3 mps 751 mmHg 54%
12:00 +28°C° 0 mm 3 mps 751 mmHg 52%
13:00 +28°C° 0 mm 3 mps 751 mmHg 50%
14:00 +28°C° 0 mm 2 mps 751 mmHg 49%
15:00 +28°C° 0 mm 2 mps 751 mmHg 48%
16:00 +28°C° 0 mm 2 mps 751 mmHg 48%
17:00 +27°C° 0 mm 2 mps 751 mmHg 49%
18:00 +26°C° 0 mm 2 mps 751 mmHg 50%
19:00 +26°C° 0 mm 2 mps 751 mmHg 50%
20:00 +25°C° 0 mm 2 mps 751 mmHg 51%
21:00 +25°C° 0 mm 2 mps 751 mmHg 52%
22:00 +25°C° 0 mm 2 mps 751 mmHg 52%
23:00 +25°C° 0 mm 2 mps 751 mmHg 53%

10 August, Tuesday

Time Temperature Precipitation Wind Pressure Humidity
00:00 +25°C° 0 mm 2 mps 751 mmHg 53%
01:00 +24°C° 0 mm 2 mps 750 mmHg 53%
02:00 +24°C° 0 mm 3 mps 750 mmHg 52%
03:00 +24°C° 0 mm 3 mps 750 mmHg 51%
04:00 +24°C° 0 mm 3 mps 750 mmHg 51%
05:00 +24°C° 0 mm 3 mps 750 mmHg 50%
06:00 +24°C° 0 mm 3 mps 750 mmHg 49%
07:00 +26°C° 0 mm 4 mps 750 mmHg 47%
08:00 +27°C° 0 mm 4 mps 749 mmHg 45%
09:00 +28°C° 0 mm 5 mps 749 mmHg 43%
10:00 +29°C° 0 mm 5 mps 749 mmHg 41%
11:00 +30°C° 0 mm 6 mps 749 mmHg 38%
12:00 +32°C° 0 mm 6 mps 749 mmHg 36%
13:00 +32°C° 0 mm 6 mps 749 mmHg 34%
14:00 +33°C° 0 mm 6 mps 749 mmHg 31%
15:00 +33°C° 0 mm 7 mps 749 mmHg 29%
16:00 +32°C° 0 mm 6 mps 749 mmHg 32%
17:00 +30°C° 0 mm 6 mps 749 mmHg 35%
18:00 +29°C° 0 mm 5 mps 749 mmHg 38%
19:00 +27°C° 0 mm 4 mps 749 mmHg 45%
20:00 +25°C° 0 mm 3 mps 749 mmHg 51%
21:00 +23°C° 0 mm 2 mps 749 mmHg 58%
22:00 +21°C° 0 mm 2 mps 749 mmHg 61%
23:00 +21°C° 0 mm 2 mps 749 mmHg 64%

11 August, Wednesday

Time Temperature Precipitation Wind Pressure Humidity
00:00 +20°C° 0 mm 2 mps 749 mmHg 68%
01:00 +20°C° 0 mm 2 mps 749 mmHg 71%
02:00 +19°C° 0 mm 2 mps 749 mmHg 74%
03:00 +20°C° 0 mm 1 mps 749 mmHg 78%
04:00 +20°C° 0 mm 1 mps 749 mmHg 78%
05:00 +20°C° 0 mm 2 mps 749 mmHg 78%
06:00 +20°C° 0 mm 2 mps 749 mmHg 77%
07:00 +21°C° 0 mm 2 mps 749 mmHg 72%
08:00 +22°C° 0 mm 3 mps 748 mmHg 67%
09:00 +25°C° 0 mm 4 mps 748 mmHg 61%
10:00 +26°C° 0 mm 4 mps 748 mmHg 56%
11:00 +27°C° 0 mm 4 mps 748 mmHg 51%
12:00 +29°C° 0 mm 4 mps 748 mmHg 46%
13:00 +29°C° 0 mm 4 mps 748 mmHg 44%
14:00 +30°C° 0 mm 4 mps 747 mmHg 43%
15:00 +30°C° 0 mm 4 mps 747 mmHg 41%
16:00 +30°C° 0 mm 4 mps 747 mmHg 42%
17:00 +29°C° 0 mm 4 mps 747 mmHg 44%
18:00 +29°C° 0 mm 4 mps 747 mmHg 45%
19:00 +27°C° 0 mm 3 mps 747 mmHg 53%
20:00 +25°C° 0 mm 3 mps 746 mmHg 62%
21:00 +22°C° 0 mm 3 mps 746 mmHg 70%
22:00 +21°C° 0 mm 3 mps 746 mmHg 76%
23:00 +20°C° 0 mm 3 mps 746 mmHg 82%
Show more

We Need Your Consent

Meteoprog and our Service Providers may store and access personal data such as cookies, device identifiers or other similar technologies on your device and process such data to personalise content and ads, as well as provide social media features and to analyse the traffic.

  • Store and/or access information on your device

    Cookies, device identifiers or other information can be stored or accessed on your device for the purposes indicated above.

  • Personalised ads and content, ad and content measurement, audience insights, and products development

    Ads and content can be personalised based on a profile. More data can be added to better personalise ads and content. Ad and content performance can be measured. Insights about the audience who saw the ads and content can be derived. Such data can be used to develop or improve user’s experience, systems and software.

By clicking ‘I Agree’ you will allow the use of indicated cookies, device identifiers, web beacons or other similar technologies. Your settings can be changed in the browser on your device.

For certain purposes, legitimate interests may be relied on, rather than consent. You can read more about this in our Privacy and Cookie Policy.